Regional Weather Roundup
Issued by NWS Cleveland, OH

Home | Current Version | Previous Version | Graphics & Text | Print | Product List | Glossary On
Versions: 1 2 3 4 5 6 7 8 9 10 11 12 13 14 15 16 17 18 19 20 21 22 23 24 25 26 27 28 29 30 31 32 33 34 35 36 37 38 39 40 41 42 43 44 45 46 47 48 49 50
000
ASUS41 KCLE 211202
RWRCLE
OHIO REGIONAL WEATHER ROUNDUP
NATIONAL WEATHER SERVICE CLEVELAND, OH
700 AM EST TUE NOV 21 2017

NOTE: "FAIR" INDICATES FEW OR NO CLOUDS BELOW 12,000 FEET WITH NO
SIGNIFICANT WEATHER AND/OR OBSTRUCTIONS TO VISIBILITY.

OHZ001>008-015>018-024>027-034-035-043-044-211300-
   NORTHWEST OHIO

CITY           SKY/WX    TMP DP  RH WIND       PRES   REMARKS
DEFIANCE       CLOUDY    40  26  57 SW13G24   29.78R
FINDLAY        PTCLDY    41  25  53 SW16G25   29.80S
TOLEDO EXPRESS PTCLDY    41  27  57 SW15      29.76S
TOLEDO EXEC    MOCLDY    41  26  55 SW17G31   29.78S
LIMA           PTCLDY    39  26  59 SW18G25   29.82S
$$

OHZ009>014-019>023-028>033-038-089-211300-
   NORTHEAST OHIO

CITY           SKY/WX    TMP DP  RH WIND       PRES   REMARKS
CLE-HOPKINS    MOCLDY    40  24  53 S15       29.85F
CLE-LAKEFRONT  CLEAR     42  22  44 S17G25    29.81F
CUY CO. ARPT   PTCLDY    43  23  45 SW12      29.83
LORAIN-ELYRIA  CLOUDY    42  20  41 SW22      29.83F
ASHTABULA      CLEAR     37  23  56 S12       29.85F
AKRON-CANTON   CLOUDY    38  22  52 SW16      29.89F
WOOSTER        CLOUDY    36  23  59 SW14G20   29.89S
MANSFIELD      CLOUDY    40  23  50 S22G30    29.86S
YOUNGSTOWN     PTCLDY    37  22  54 S10       29.89S
$$

OHZ042-051>053-060>062-070>072-077>081-211300-
  SOUTHWEST OHIO

CITY           SKY/WX    TMP DP  RH WIND       PRES   REMARKS
CINC-COVINGTON CLOUDY    40  27  59 S14G21    29.95F
CINC-LUNKEN    MOCLDY    36  28  73 S10       29.99S
HAMILTON       CLOUDY    42  26  53 VRB7      29.96S
DAYTON         CLOUDY    38  26  62 S17G26    29.90S
WRIGHT-PAT AFB NOT AVBL
DAYTON GENERAL CLOUDY    37  25  61 S15       29.92S
WILMINGTON     CLOUDY    36  27  69 S10       29.94F
$$

OHZ036-037-039>041-045>050-054>059-063>069-073>076-082>088-211300-
  CENTRAL AND SOUTHEAST OHIO

CITY           SKY/WX    TMP DP  RH WIND       PRES   REMARKS
COLUMBUS       CLOUDY    39  26  59 S10       29.94S
OSU AIRPORT    CLOUDY    37  26  64 S10       29.92F
BOLTON FIELD   CLOUDY    36  27  67 S12       29.94S
RICKENBACK AFB CLOUDY    38  26  62 SW13      29.95S
NEWARK         CLEAR     39  24  55 S7        29.94S
MARION         CLOUDY    36  25  64 S16       29.87F
LANCASTER      CLOUDY    39  26  59 S8        29.95F
ZANESVILLE     CLEAR     37  22  54 SW8       29.97R
NEW PHILLY     NOT AVBL
$$




USA.gov is the U.S. government's official web portal to all federal, state and local government web resources and services.